Content
SEND FEEDBACK

Daily
Averages
Monthly
Summary
Canada

QUEBEC CITY, QUEBEC


Home > North America > Canada > Quebec
Elevation: 239 feet     Latitude: 46 48N     Longitude: 071 23W

WEATHER
 
SELECT A DAY
Number of Records: 194,992;   Date Range: 6/30/96 - 9/29/14
 
SHARE

PRINT THIS DATA

[ ← Previous Day ]
WEATHER ALMANAC - JANUARY 7, 2013
[ Next Day → ]
[ °C ]   °F
Weather ElementAverageHighLow
Temperature5.7 °F12.2 °F (1:00 am)-9 °F (7:00 pm)
Dewpoint-0.1 °F8 °F (1:00 am)-13 °F (7:00 pm)
Humidity73.9 %85 % (5:00 pm)57 % (1:00 pm)
Barometer27.64 in30.40 in (10:00 am) (7:00 pm)
Wind Speed5.6 mph16.1 mph (1:00 am)
Wind Gust23 mph (1:00 am)
Weather ElementAverage
Visibility14.8 mi
Wind DirectionESE (123.3 °)

Weather ElementTotal
Precipitation---
Heating Degree Days63.4 (Base 65)
Averaged from 34 records on January 7, 2013
WEATHER CONDITIONS BREAKOUT
WIND DIRECTION BREAKOUT
WEATHER BY HOUR - JANUARY 7, 2013
[ °C ]   °F
Local TimeTemperatureDewpointHumidityBarometerVisibilityWind DirectionWind SpeedGust SpeedPrecipitationEventsConditions
1:00 AM12.0 °F8.0 °F74 %30.11 inEast (80°)12.7 mph
1:00 AM12.2 °F6.8 °F79 %30.12 in8.0 miENE (70°)16.1 mph23.0 mphSnowLight Snow
2:00 AM10.4 °F3.2 °F73 %30.15 in15.0 miENE (70°)15.0 mph21.9 mphSnowLight Snow
3:00 AM8.6 °F3.2 °F79 %30.19 in12.0 miENE (70°)15.0 mphSnowLight Snow
4:00 AM9.0 °F4.0 °F73 %30.21 inENE (70°)8.1 mph
4:00 AM8.6 °F3.2 °F79 %30.21 in8.0 miENE (70°)12.7 mphSnowLight Snow
5:00 AM8.6 °F3.2 °F79 %30.24 in8.0 miENE (70°)12.7 mphSnowLight Snow
6:00 AM6.8 °F1.4 °F79 %30.28 in8.0 miEast (80°)6.9 mphSnowLight Snow
7:00 AM6.8 °F-0.4 °F72 %30.32 in8.0 miEast (80°)6.9 mphSnowLight Snow
7:00 AM6.0 °F1.0 °F71 %30.32 inENE (70°)5.8 mph
8:00 AM5.0 °F-0.4 °F78 %30.35 in8.0 miENE (70°)3.5 mphSnowLight Snow
9:00 AM5.0 °F-0.4 °F78 %30.38 in10.0 miNE (50°)3.5 mphSnowLight Snow
9:37 AM5.0 °F0.0 °F15.0 miNE (40°)3.5 mphPartly Cloudy
10:00 AM7.0 °F0.0 °F62 %30.39 inEast (90°)2.3 mph
10:00 AM6.8 °F-0.4 °F72 %30.40 in15.0 miCalmPartly Cloudy
11:00 AM8.6 °F-0.4 °F67 %30.40 in15.0 miCalmScattered Clouds
12:00 PM6.8 °F-0.4 °F72 %30.40 in15.0 miWSW (240°)6.9 mphPartly Cloudy
1:00 PM8.6 °F1.4 °F73 %30.38 in30.0 miSW (220°)6.9 mphPartly Cloudy
1:00 PM9.0 °F1.0 °F57 %30.37 inSSW (210°)3.5 mph
2:00 PM8.6 °F1.4 °F73 %30.38 in30.0 miSSW (200°)6.9 mphPartly Cloudy
3:00 PM8.6 °F-0.4 °F67 %30.39 in30.0 miSW (230°)10.4 mphPartly Cloudy
4:00 PM6.0 °F1.0 °F72 %30.38 inSW (220°)3.5 mph
4:00 PM6.8 °F-0.4 °F72 %30.38 in30.0 miSW (220°)4.6 mphScattered Clouds
5:00 PM3.2 °F-0.4 °F85 %30.39 in30.0 miWSW (250°)6.9 mphPartly Cloudy
6:00 PM1.4 °F-4.0 °F78 %30.37 in15.0 miWSW (250°)3.5 mphPartly Cloudy
7:00 PM1.4 °F-4.0 °F78 %30.35 in15.0 miNorth (360°)3.5 mphPartly Cloudy
7:00 PM-9.0 °F-13.0 °F75 %30.35 inNW (320°)1.2 mph
8:00 PM3.2 °F-4.0 °F72 %30.33 in15.0 miNorth (10°)4.6 mphMostly Cloudy
9:00 PM3.2 °F-5.8 °F66 %30.31 in15.0 miCalmOvercast
9:33 PM1.4 °F0.0 °F15.0 miCalmSnowLight Snow
10:00 PM0.0 °F-3.0 °F80 %30.27 inCalm
10:00 PM1.4 °F-4.0 °F78 %30.26 in4.0 miCalmSnowLight Snow
11:00 PM3.2 °F-2.2 °F78 %30.22 in4.0 miCalmSnowLight Snow
11:28 PM5.0 °F0.0 °F6.0 miNorth (360°)3.5 mphSnowLight Snow
Hourly data recorded from CYQB, located miles away from Quebec City, Quebec







STORIES FROM OUR PARTNERS